Terminal Aerodrome Forecast
Issued by NWS

Home | Current Version | Previous Version | Text Only | Print | Product List | Glossary On
Versions: 1 2 3 4 5 6 7 8 9 10 11 12 13 14 15 16 17 18 19 20 21
000
FTUS43 KAPX 260539
TAFAPN
TAF
KAPN 260539Z 2606/2706 21006KT P6SM SCT060 BKN090 WS020/24030KT
     FM260900 21007KT P6SM BKN150 WS020/24030KT
     FM261400 20010G18KT P6SM SCT040
     FM261800 19011G20KT P6SM VCTS BKN050CB BKN150
     FM270500 15006KT 6SM BR SCT002 BKN120=

USA.gov is the U.S. government's official web portal to all federal, state and local government web resources and services.